This is the latest recevied weather packets stored in our database for station/object OK9AIR. If no packets are shown the sender has not sent any weather packets the latest 1 day(s).
| Time | Temp. | Humidity | Pressure | Rain* | Wind** | Luminosity | Snow |
|---|---|---|---|---|---|---|---|
| 1778323026 | 16.67° C | 50% | 974.9 hPa | - | - | - | - |
| 1778316354 | 16.67° C | 59% | 974.9 hPa | - | - | - | - |
| 1778316291 | 16.67° C | 63% | 974.9 hPa | - | - | - | - |
| 1778315393 | 16.11° C | 57% | 975 hPa | - | - | - | - |
| 1778315330 | 16.11° C | 58% | 975 hPa | - | - | - | - |
| 1778314367 | 17.78° C | 57% | 975 hPa | - | - | - | - |
| 1778313468 | 18.89° C | 58% | 974.9 hPa | - | - | - | - |
| 1778312443 | 17.22° C | 58% | 975 hPa | - | - | - | - |
| 1778311543 | 16.11° C | 64% | 975.1 hPa | - | - | - | - |
| 1778311481 | 16.11° C | 63% | 975.1 hPa | - | - | - | - |
| 1778310582 | 17.22° C | 62% | 975 hPa | - | - | - | - |
| 1778310519 | 17.22° C | 60% | 975 hPa | - | - | - | - |
| 1778309621 | 16.11° C | 64% | 975 hPa | - | - | - | - |
| 1778309557 | 16.11° C | 64% | 975 hPa | - | - | - | - |
| 1778308658 | 15° C | 69% | 974.9 hPa | - | - | - | - |
| 1778308595 | 14.44° C | 71% | 974.9 hPa | - | - | - | - |
| 1778307699 | 14.44° C | 72% | 974.9 hPa | - | - | - | - |
| 1778307634 | 14.44° C | 72% | 974.8 hPa | - | - | - | - |
| 1778305770 | 12.22° C | 90% | 974.9 hPa | - | - | - | - |
| 1778304808 | 11.67° C | 93% | 974.8 hPa | - | - | - | - |
| 1778303846 | 12.22° C | 91% | 974.9 hPa | - | - | - | - |
| 1778302884 | 11.67° C | 92% | 974.7 hPa | - | - | - | - |
| 1778300801 | 10° C | 98% | 974.5 hPa | - | - | - | - |
| 1778297025 | 6.67° C | 100% | 974.5 hPa | - | - | - | - |
| 1778281894 | 8.33° C | 100% | 974.7 hPa | - | - | - | - |
* Rain since midnight (hover to see other rain measurements)
** Current wind speed in m/s (hover to see current wind gust speed)